Time,TemperatureF,DewpointF,PressureIn,WindDirection,WindDirectionDegrees,WindSpeedMPH,WindSpeedGustMPH,Humidity,HourlyPrecipIn,Conditions,Clouds,dailyrainin,SoftwareType,DateUTC
2013-02-12 00:00:00,20.7,11.8,27.19,North,0,0.0,0.0,68,0.00,RA,,0.00,WeatherDisplay:10.37,2013-02-12 06:00:00,
2013-02-12 00:05:00,20.7,11.8,27.19,North,0,0.0,0.0,68,0.00,RA,,0.00,WeatherDisplay:10.37,2013-02-12 06:05:00,
2013-02-12 00:10:00,20.5,11.6,27.19,North,0,0.0,0.0,68,0.00,CLR,,0.00,WeatherDisplay:10.37,2013-02-12 06:10:00,
2013-02-12 00:15:00,20.5,11.6,27.19,North,0,0.0,0.0,68,0.00,CLR,,0.00,WeatherDisplay:10.37,2013-02-12 06:15:00,
2013-02-12 00:20:00,20.5,11.6,27.19,North,0,0.0,0.0,68,0.00,CLR,,0.00,WeatherDisplay:10.37,2013-02-12 06:20:00,
2013-02-12 00:25:00,20.3,11.4,27.19,South,180,0.0,0.0,68,0.00,CLR,,0.00,WeatherDisplay:10.37,2013-02-12 06:25:00,
2013-02-12 00:30:00,20.3,11.4,27.19,South,180,0.0,0.0,68,0.00,CLR,,0.00,WeatherDisplay:10.37,2013-02-12 06:30:00,
2013-02-12 00:35:00,20.1,11.2,27.18,South,180,0.0,0.0,68,0.00,CLR,,0.00,WeatherDisplay:10.37,2013-02-12 06:35:00,
2013-02-12 00:40:00,20.1,11.2,27.19,South,180,0.0,0.0,68,0.00,RA,,0.15,WeatherDisplay:10.37,2013-02-12 06:40:00,
2013-02-12 00:45:00,19.9,11.1,27.18,North,0,1.1,1.1,68,0.00,RA,,0.15,WeatherDisplay:10.37,2013-02-12 06:45:00,
2013-02-12 00:50:00,19.8,10.9,27.18,North,0,1.1,0.0,68,0.00,,,0.15,WeatherDisplay:10.37,2013-02-12 06:50:00,
2013-02-12 00:55:00,19.6,11.1,27.18,North,0,0.0,0.0,69,0.00,CLR,,0.15,WeatherDisplay:10.37,2013-02-12 06:55:00,
2013-02-12 01:00:00,19.6,11.1,27.18,North,0,0.0,0.0,69,0.15,CLR,,0.15,WeatherDisplay:10.37,2013-02-12 07:00:00,
2013-02-12 01:05:00,19.2,9.4,27.18,North,0,0.0,0.0,65,0.15,CLR,,0.15,WeatherDisplay:10.37,2013-02-12 07:05:00,
2013-02-12 01:10:00,19.2,9.4,27.18,North,0,0.0,0.0,65,0.15,CLR,,0.15,WeatherDisplay:10.37,2013-02-12 07:10:00,
2013-02-12 01:15:00,19.0,9.5,27.18,North,0,0.0,0.0,66,0.15,CLR,,0.15,WeatherDisplay:10.37,2013-02-12 07:15:00,
2013-02-12 01:20:00,19.0,9.5,27.18,North,0,0.0,0.0,66,0.15,CLR,,0.15,WeatherDisplay:10.37,2013-02-12 07:20:00,
2013-02-12 01:25:00,19.0,9.5,27.18,South,180,1.1,0.0,66,0.15,CLR,,0.15,WeatherDisplay:10.37,2013-02-12 07:25:00,
2013-02-12 01:30:00,19.0,9.9,27.18,South,180,0.0,0.0,67,0.15,CLR,,0.15,WeatherDisplay:10.37,2013-02-12 07:30:00,
2013-02-12 01:35:00,18.9,9.7,27.18,South,180,0.0,0.0,67,0.15,CLR,,0.15,WeatherDisplay:10.37,2013-02-12 07:35:00,
2013-02-12 01:40:00,18.9,9.7,27.18,North,0,0.0,0.0,67,0.00,CLR,,0.15,WeatherDisplay:10.37,2013-02-12 07:40:00,
2013-02-12 01:45:00,18.7,9.5,27.17,SE,135,0.0,0.0,67,0.00,CLR,,0.15,WeatherDisplay:10.37,2013-02-12 07:45:00,
2013-02-12 01:50:00,18.9,9.4,27.17,South,180,1.1,0.0,66,0.00,CLR,,0.15,WeatherDisplay:10.37,2013-02-12 07:50:00,
2013-02-12 01:55:00,18.9,9.4,27.17,South,180,1.1,0.0,66,0.00,CLR,,0.15,WeatherDisplay:10.37,2013-02-12 07:55:00,
2013-02-12 02:00:00,18.7,9.2,27.17,South,180,0.0,0.0,66,0.00,CLR,,0.15,WeatherDisplay:10.37,2013-02-12 08:00:00,
2013-02-12 02:06:00,18.7,9.2,27.17,South,180,0.0,0.0,66,0.00,CLR,,0.15,WeatherDisplay:10.37,2013-02-12 08:06:00,
2013-02-12 02:11:00,18.3,8.5,27.18,North,0,1.1,0.0,65,0.00,CLR,,0.15,WeatherDisplay:10.37,2013-02-12 08:11:00,
2013-02-12 02:16:00,18.3,8.5,27.18,North,0,1.1,1.6,65,0.00,CLR,,0.15,WeatherDisplay:10.37,2013-02-12 08:16:00,
2013-02-12 02:21:00,18.1,8.7,27.18,NE,45,1.1,0.0,66,0.00,CLR,,0.15,WeatherDisplay:10.37,2013-02-12 08:21:00,
2013-02-12 02:26:00,17.8,8.3,27.18,SW,225,2.3,2.3,66,0.00,CLR,,0.15,WeatherDisplay:10.37,2013-02-12 08:26:00,
2013-02-12 02:31:00,17.8,8.3,27.18,North,0,1.1,0.0,66,0.00,CLR,,0.15,WeatherDisplay:10.37,2013-02-12 08:31:00,
2013-02-12 02:36:00,17.6,8.5,27.18,NW,315,0.0,0.0,67,0.00,CLR,,0.15,WeatherDisplay:10.37,2013-02-12 08:36:00,
2013-02-12 02:41:00,17.6,8.5,27.18,NW,315,0.0,0.0,67,0.00,CLR,,0.15,WeatherDisplay:10.37,2013-02-12 08:41:00,
2013-02-12 02:46:00,17.6,8.5,27.18,North,0,0.0,0.0,67,0.00,CLR,,0.15,WeatherDisplay:10.37,2013-02-12 08:46:00,
2013-02-12 02:51:00,17.4,8.7,27.18,NW,315,1.1,1.1,68,0.00,CLR,,0.15,WeatherDisplay:10.37,2013-02-12 08:51:00,
2013-02-12 02:56:00,17.4,9.0,27.18,NW,315,2.3,0.0,69,0.00,CLR,,0.15,WeatherDisplay:10.37,2013-02-12 08:56:00,
2013-02-12 03:01:00,17.4,9.3,27.18,NW,315,1.1,1.1,70,0.00,CLR,,0.15,WeatherDisplay:10.37,2013-02-12 09:01:00,
2013-02-12 03:06:00,17.2,9.1,27.18,North,0,1.1,0.0,70,0.00,CLR,,0.15,WeatherDisplay:10.37,2013-02-12 09:06:00,
2013-02-12 03:11:00,17.1,9.0,27.18,North,0,1.1,0.0,70,0.00,CLR,,0.15,WeatherDisplay:10.37,2013-02-12 09:11:00,
2013-02-12 03:16:00,17.1,9.3,27.18,North,0,0.0,0.0,71,0.00,CLR,,0.15,WeatherDisplay:10.37,2013-02-12 09:16:00,
2013-02-12 03:21:00,16.9,9.1,27.18,SW,225,0.0,0.0,71,0.00,CLR,,0.15,WeatherDisplay:10.37,2013-02-12 09:21:00,
2013-02-12 03:26:00,16.7,8.9,27.17,North,0,0.0,0.0,71,0.00,CLR,,0.15,WeatherDisplay:10.37,2013-02-12 09:26:00,
2013-02-12 03:31:00,16.7,8.9,27.17,North,0,0.0,0.0,71,0.00,CLR,,0.15,WeatherDisplay:10.37,2013-02-12 09:31:00,
2013-02-12 03:36:00,16.5,8.8,27.17,North,0,1.1,0.0,71,0.00,CLR,,0.15,WeatherDisplay:10.37,2013-02-12 09:36:00,
2013-02-12 03:41:00,16.5,9.1,27.18,NW,315,0.0,0.0,72,0.00,CLR,,0.15,WeatherDisplay:10.37,2013-02-12 09:41:00,
2013-02-12 03:46:00,16.5,9.1,27.18,NW,315,0.0,0.0,72,0.00,CLR,,0.15,WeatherDisplay:10.37,2013-02-12 09:46:00,
2013-02-12 03:51:00,16.3,8.9,27.18,NW,315,0.0,0.0,72,0.00,CLR,,0.15,WeatherDisplay:10.37,2013-02-12 09:51:00,
2013-02-12 03:56:00,16.3,8.9,27.18,NW,315,0.0,0.0,72,0.00,CLR,,0.15,WeatherDisplay:10.37,2013-02-12 09:56:00,
2013-02-12 04:01:00,16.3,8.9,27.17,NW,315,1.1,1.1,72,0.00,CLR,,0.15,WeatherDisplay:10.37,2013-02-12 10:01:00,
2013-02-12 04:06:00,16.3,8.9,27.18,NW,315,1.1,1.1,72,0.00,CLR,,0.15,WeatherDisplay:10.37,2013-02-12 10:06:00,
2013-02-12 04:11:00,16.9,9.4,27.18,NE,45,0.0,0.0,72,0.00,CLR,,0.15,WeatherDisplay:10.37,2013-02-12 10:11:00,
2013-02-12 04:16:00,16.9,9.4,27.17,NE,45,0.0,0.0,72,0.00,CLR,,0.15,WeatherDisplay:10.37,2013-02-12 10:16:00,
2013-02-12 04:21:00,16.9,9.4,27.17,SE,135,2.3,2.3,72,0.00,CLR,,0.15,WeatherDisplay:10.37,2013-02-12 10:21:00,
2013-02-12 04:26:00,16.7,9.2,27.17,NW,315,1.1,0.0,72,0.00,CLR,,0.15,WeatherDisplay:10.37,2013-02-12 10:26:00,
2013-02-12 04:31:00,16.7,9.2,27.18,NW,315,0.0,0.0,72,0.00,CLR,,0.15,WeatherDisplay:10.37,2013-02-12 10:31:00,
2013-02-12 04:36:00,16.7,9.2,27.17,NW,315,0.0,0.0,72,0.00,CLR,,0.15,WeatherDisplay:10.37,2013-02-12 10:36:00,
2013-02-12 04:41:00,17.1,9.6,27.17,NW,315,0.0,0.0,72,0.00,CLR,,0.15,WeatherDisplay:10.37,2013-02-12 10:41:00,
2013-02-12 04:46:00,17.2,10.1,27.17,NW,315,1.1,0.0,73,0.00,CLR,,0.15,WeatherDisplay:10.37,2013-02-12 10:46:00,
2013-02-12 04:51:00,17.6,10.1,27.17,NW,315,0.0,0.0,72,0.00,CLR,,0.15,WeatherDisplay:10.37,2013-02-12 10:51:00,
2013-02-12 04:56:00,17.6,10.1,27.18,SE,135,2.3,2.3,72,0.00,CLR,,0.15,WeatherDisplay:10.37,2013-02-12 10:56:00,
2013-02-12 05:01:00,17.2,10.1,27.18,SE,135,1.1,1.6,73,0.00,CLR,,0.15,WeatherDisplay:10.37,2013-02-12 11:01:00,
2013-02-12 05:06:00,17.1,9.6,27.18,SE,135,2.3,0.0,72,0.00,CLR,,0.15,WeatherDisplay:10.37,2013-02-12 11:06:00,
2013-02-12 05:11:00,16.9,9.4,27.18,NE,45,0.0,0.0,72,0.00,CLR,,0.15,WeatherDisplay:10.37,2013-02-12 11:11:00,
2013-02-12 05:16:00,16.7,9.2,27.18,South,180,0.0,0.0,72,0.00,CLR,,0.15,WeatherDisplay:10.37,2013-02-12 11:16:00,
2013-02-12 05:21:00,16.7,9.2,27.18,North,0,1.1,1.1,72,0.00,CLR,,0.15,WeatherDisplay:10.37,2013-02-12 11:21:00,
2013-02-12 05:26:00,16.7,9.2,27.18,SW,225,0.7,0.0,72,0.00,CLR,,0.15,WeatherDisplay:10.37,2013-02-12 11:26:00,
2013-02-12 05:31:00,17.2,10.1,27.18,West,270,2.3,2.3,73,0.00,CLR,,0.15,WeatherDisplay:10.37,2013-02-12 11:31:00,
2013-02-12 05:36:00,18.9,11.3,27.18,NE,45,1.1,1.1,72,0.00,CLR,,0.15,WeatherDisplay:10.37,2013-02-12 11:36:00,
2013-02-12 05:41:00,20.1,13.8,27.18,NW,315,1.1,1.1,76,0.00,CLR,,0.15,WeatherDisplay:10.37,2013-02-12 11:41:00,
2013-02-12 05:46:00,19.8,13.1,27.18,NW,315,1.1,0.0,75,0.00,CLR,,0.15,WeatherDisplay:10.37,2013-02-12 11:46:00,
2013-02-12 05:51:00,19.2,11.0,27.18,North,0,0.0,0.0,70,0.00,CLR,,0.15,WeatherDisplay:10.37,2013-02-12 11:51:00,
2013-02-12 05:56:00,18.9,10.4,27.18,East,90,0.0,0.0,69,0.00,CLR,,0.15,WeatherDisplay:10.37,2013-02-12 11:56:00,
2013-02-12 06:01:00,18.5,10.0,27.18,East,90,0.0,0.0,69,0.00,CLR,,0.15,WeatherDisplay:10.37,2013-02-12 12:01:00,
2013-02-12 06:06:00,18.5,10.0,27.18,East,90,0.0,0.0,69,0.00,CLR,,0.15,WeatherDisplay:10.37,2013-02-12 12:06:00,
2013-02-12 06:11:00,18.7,10.5,27.18,NW,315,2.3,2.3,70,0.00,CLR,,0.15,WeatherDisplay:10.37,2013-02-12 12:11:00,
2013-02-12 06:16:00,18.9,10.7,27.18,North,0,1.1,0.0,70,0.00,CLR,,0.15,WeatherDisplay:10.37,2013-02-12 12:16:00,
2013-02-12 06:21:00,18.9,10.7,27.17,NW,315,2.3,0.0,70,0.00,CLR,,0.15,WeatherDisplay:10.37,2013-02-12 12:21:00,
2013-02-12 06:26:00,19.4,12.5,27.18,NW,315,0.0,0.0,74,0.00,CLR,,0.15,WeatherDisplay:10.37,2013-02-12 12:26:00,
2013-02-12 06:31:00,19.6,12.6,27.18,North,0,1.1,0.0,74,0.00,CLR,,0.15,WeatherDisplay:10.37,2013-02-12 12:31:00,
2013-02-12 06:36:00,19.6,12.3,27.18,NW,315,2.3,2.3,73,0.00,CLR,,0.15,WeatherDisplay:10.37,2013-02-12 12:36:00,
2013-02-12 06:41:00,19.6,12.3,27.18,NW,315,2.3,2.3,73,0.00,CLR,,0.15,WeatherDisplay:10.37,2013-02-12 12:41:00,
2013-02-12 06:46:00,19.8,12.5,27.18,NW,315,1.1,1.6,73,0.00,CLR,,0.15,WeatherDisplay:10.37,2013-02-12 12:46:00,
2013-02-12 06:51:00,19.9,12.4,27.18,NW,315,2.3,2.3,72,0.00,CLR,,0.15,WeatherDisplay:10.37,2013-02-12 12:51:00,
2013-02-12 06:56:00,20.1,12.5,27.17,SW,225,2.3,2.3,72,0.00,CLR,,0.15,WeatherDisplay:10.37,2013-02-12 12:56:00,
2013-02-12 07:01:00,20.1,12.5,27.18,NW,315,1.1,1.6,72,0.00,CLR,,0.15,WeatherDisplay:10.37,2013-02-12 13:01:00,
2013-02-12 07:06:00,20.5,12.6,27.18,NW,315,2.3,0.0,71,0.00,CLR,,0.15,WeatherDisplay:10.37,2013-02-12 13:06:00,
2013-02-12 07:11:00,20.7,12.7,27.17,NW,315,1.1,0.0,71,0.00,CLR,,0.15,WeatherDisplay:10.37,2013-02-12 13:11:00,
2013-02-12 07:16:00,20.8,12.6,27.18,NNE,14,3.1,3.1,70,0.00,CLR,,0.15,WeatherDisplay:10.37,2013-02-12 13:16:00,
2013-02-12 07:21:00,20.7,12.4,27.17,NNW,338,2.3,2.3,70,0.00,CLR,,0.15,WeatherDisplay:10.37,2013-02-12 13:21:00,
2013-02-12 07:27:00,19.9,11.4,27.17,North,0,3.5,0.0,69,0.00,CLR,,0.15,WeatherDisplay:10.37,2013-02-12 13:27:00,
2013-02-12 07:32:00,19.8,11.2,27.17,NW,315,1.1,2.2,69,0.00,CLR,,0.15,WeatherDisplay:10.37,2013-02-12 13:32:00,
2013-02-12 07:37:00,19.6,11.4,27.17,NW,315,2.3,2.3,70,0.00,CLR,,0.15,WeatherDisplay:10.37,2013-02-12 13:37:00,
2013-02-12 07:42:00,19.8,11.6,27.17,NW,315,2.3,2.3,70,0.00,CLR,,0.15,WeatherDisplay:10.37,2013-02-12 13:42:00,
2013-02-12 07:47:00,19.9,11.7,27.17,NW,315,2.3,2.3,70,0.00,CLR,,0.15,WeatherDisplay:10.37,2013-02-12 13:47:00,
2013-02-12 07:52:00,19.9,11.7,27.17,NW,315,2.3,2.3,70,0.00,CLR,,0.15,WeatherDisplay:10.37,2013-02-12 13:52:00,
2013-02-12 07:57:00,19.8,11.6,27.17,North,0,3.5,3.5,70,0.00,CLR,,0.15,WeatherDisplay:10.37,2013-02-12 13:57:00,
2013-02-12 08:02:00,19.4,11.2,27.16,NW,315,3.5,3.5,70,0.00,CLR,,0.15,WeatherDisplay:10.37,2013-02-12 14:02:00,
2013-02-12 08:07:00,19.4,11.2,27.16,NW,315,3.5,3.5,70,0.00,CLR,,0.15,WeatherDisplay:10.37,2013-02-12 14:07:00,
2013-02-12 08:12:00,19.2,9.7,27.16,NW,315,0.0,0.0,66,0.00,CLR,,0.15,WeatherDisplay:10.37,2013-02-12 14:12:00,
2013-02-12 08:17:00,19.2,9.7,27.16,North,0,1.1,1.1,66,0.00,CLR,,0.15,WeatherDisplay:10.37,2013-02-12 14:17:00,
2013-02-12 08:22:00,19.4,11.5,27.16,North,0,4.6,4.6,71,0.00,CLR,,0.15,WeatherDisplay:10.37,2013-02-12 14:22:00,
2013-02-12 08:27:00,19.2,10.0,27.16,NW,315,3.5,3.5,67,0.00,CLR,,0.15,WeatherDisplay:10.37,2013-02-12 14:27:00,
2013-02-12 08:32:00,19.4,11.8,27.16,NW,315,5.8,5.8,72,0.00,CLR,,0.15,WeatherDisplay:10.37,2013-02-12 14:32:00,
2013-02-12 08:37:00,19.8,12.2,27.15,NW,315,3.5,3.5,72,0.00,CLR,,0.15,WeatherDisplay:10.37,2013-02-12 14:37:00,
2013-02-12 08:42:00,20.3,13.0,27.15,NW,315,4.6,4.6,73,0.00,CLR,,0.15,WeatherDisplay:10.37,2013-02-12 14:42:00,
2013-02-12 08:47:00,20.7,13.4,27.15,NW,315,4.6,4.6,73,0.00,CLR,,0.15,WeatherDisplay:10.37,2013-02-12 14:47:00,
2013-02-12 08:52:00,21.4,13.8,27.15,WNW,292,3.5,3.5,72,0.00,CLR,,0.15,WeatherDisplay:10.37,2013-02-12 14:52:00,
2013-02-12 08:57:00,22.5,14.5,27.15,West,270,5.4,5.4,71,0.00,CLR,,0.15,WeatherDisplay:10.37,2013-02-12 14:57:00,
2013-02-12 09:02:00,23.0,14.0,27.15,NW,315,3.5,3.5,68,0.00,CLR,,0.15,WeatherDisplay:10.37,2013-02-12 15:02:00,
2013-02-12 09:07:00,23.5,14.2,27.16,West,270,3.5,3.5,67,0.00,CLR,,0.15,WeatherDisplay:10.37,2013-02-12 15:07:00,
2013-02-12 09:12:00,24.1,14.4,27.16,WNW,292,3.5,3.5,66,0.00,CLR,,0.15,WeatherDisplay:10.37,2013-02-12 15:12:00,
2013-02-12 09:17:00,24.6,14.5,27.16,West,270,1.1,0.0,65,0.00,CLR,,0.15,WeatherDisplay:10.37,2013-02-12 15:17:00,
2013-02-12 09:22:00,25.2,14.3,27.16,NW,315,2.3,2.3,63,0.00,CLR,,0.15,WeatherDisplay:10.37,2013-02-12 15:22:00,
2013-02-12 09:27:00,25.7,14.5,27.16,NW,315,3.5,3.5,62,0.00,CLR,,0.15,WeatherDisplay:10.37,2013-02-12 15:27:00,
2013-02-12 09:32:00,26.2,14.6,27.15,NW,315,2.3,2.3,61,0.00,CLR,,0.15,WeatherDisplay:10.37,2013-02-12 15:32:00,
2013-02-12 09:37:00,26.8,14.7,27.15,NW,315,3.5,3.5,60,0.00,CLR,,0.15,WeatherDisplay:10.37,2013-02-12 15:37:00,
2013-02-12 09:42:00,27.5,15.8,27.16,North,0,1.6,0.0,61,0.00,CLR,,0.15,WeatherDisplay:10.37,2013-02-12 15:42:00,
2013-02-12 09:47:00,28.0,16.3,27.16,North,0,3.5,0.0,61,0.00,CLR,,0.15,WeatherDisplay:10.37,2013-02-12 15:47:00,
2013-02-12 09:52:00,28.6,17.6,27.17,NE,45,3.5,0.0,63,0.00,CLR,,0.15,WeatherDisplay:10.37,2013-02-12 15:52:00,
2013-02-12 09:57:00,29.3,17.5,27.16,NW,315,2.3,2.3,61,0.00,CLR,,0.15,WeatherDisplay:10.37,2013-02-12 15:57:00,
2013-02-12 10:02:00,29.7,17.5,27.16,NW,315,1.1,1.1,60,0.00,CLR,,0.15,WeatherDisplay:10.37,2013-02-12 16:02:00,
2013-02-12 10:07:00,29.7,17.5,27.16,NW,315,1.1,1.1,60,0.00,CLR,,0.15,WeatherDisplay:10.37,2013-02-12 16:07:00,
2013-02-12 10:12:00,31.3,15.7,27.17,NW,315,4.6,4.6,52,0.00,CLR,,0.15,WeatherDisplay:10.37,2013-02-12 16:12:00,
2013-02-12 10:17:00,32.2,13.7,27.17,NW,315,8.1,8.1,46,0.00,CLR,,0.15,WeatherDisplay:10.37,2013-02-12 16:17:00,
2013-02-12 10:22:00,32.5,12.5,27.17,West,270,6.9,6.9,43,0.00,CLR,,0.15,WeatherDisplay:10.37,2013-02-12 16:22:00,
2013-02-12 10:27:00,32.9,12.8,27.17,West,270,8.1,8.1,43,0.00,CLR,,0.15,WeatherDisplay:10.37,2013-02-12 16:27:00,
2013-02-12 10:32:00,33.1,11.9,27.16,NW,315,9.2,9.2,41,0.00,CLR,,0.15,WeatherDisplay:10.37,2013-02-12 16:32:00,
2013-02-12 10:37:00,33.6,11.8,27.16,NW,315,8.1,8.1,40,0.00,CLR,,0.15,WeatherDisplay:10.37,2013-02-12 16:37:00,
2013-02-12 10:42:00,34.0,11.0,27.17,WNW,292,8.1,8.1,38,0.00,CLR,,0.15,WeatherDisplay:10.37,2013-02-12 16:42:00,
2013-02-12 10:47:00,34.5,10.9,27.17,NW,315,5.8,5.8,37,0.00,CLR,,0.15,WeatherDisplay:10.37,2013-02-12 16:47:00,
2013-02-12 10:52:00,34.9,11.2,27.17,NW,315,6.9,6.9,37,0.00,CLR,,0.15,WeatherDisplay:10.37,2013-02-12 16:52:00,
2013-02-12 10:57:00,35.2,9.6,27.17,NW,315,5.8,5.8,34,0.00,CLR,,0.15,WeatherDisplay:10.37,2013-02-12 16:57:00,
2013-02-12 11:02:00,35.4,9.1,27.17,NW,315,6.9,6.9,33,0.00,CLR,,0.15,WeatherDisplay:10.37,2013-02-12 17:02:00,
2013-02-12 11:07:00,35.4,8.4,27.18,NW,315,6.9,6.9,32,0.00,CLR,,0.15,WeatherDisplay:10.37,2013-02-12 17:07:00,
2013-02-12 11:12:00,35.8,8.8,27.18,NW,315,5.8,5.8,32,0.00,CLR,,0.15,WeatherDisplay:10.37,2013-02-12 17:12:00,
2013-02-12 11:17:00,36.0,8.2,27.18,NNW,338,5.8,5.8,31,0.00,CLR,,0.15,WeatherDisplay:10.37,2013-02-12 17:17:00,
2013-02-12 11:22:00,36.3,9.2,27.18,NW,315,6.0,6.0,32,0.00,CLR,,0.15,WeatherDisplay:10.37,2013-02-12 17:22:00,
2013-02-12 11:27:00,36.5,8.7,27.18,NW,315,5.8,5.8,31,0.00,CLR,,0.15,WeatherDisplay:10.37,2013-02-12 17:27:00,
2013-02-12 11:32:00,36.9,9.0,27.17,NW,315,8.1,8.1,31,0.00,CLR,,0.15,WeatherDisplay:10.37,2013-02-12 17:32:00,
2013-02-12 11:37:00,37.0,9.2,27.17,NW,315,8.1,8.1,31,0.00,CLR,,0.15,WeatherDisplay:10.37,2013-02-12 17:37:00,
2013-02-12 11:42:00,37.0,7.7,27.17,NW,315,5.8,5.8,29,0.00,CLR,,0.15,WeatherDisplay:10.37,2013-02-12 17:42:00,
2013-02-12 11:47:00,37.4,11.5,27.17,NW,315,5.8,5.8,34,0.00,CLR,,0.15,WeatherDisplay:10.37,2013-02-12 17:47:00,
2013-02-12 11:52:00,37.8,12.5,27.17,NW,315,5.8,5.8,35,0.00,CLR,,0.15,WeatherDisplay:10.37,2013-02-12 17:52:00,
2013-02-12 11:57:00,37.9,12.0,27.17,NW,315,5.8,5.8,34,0.00,CLR,,0.15,WeatherDisplay:10.37,2013-02-12 17:57:00,
2013-02-12 12:02:00,37.9,11.3,27.17,West,270,5.8,5.8,33,0.00,CLR,,0.15,WeatherDisplay:10.37,2013-02-12 18:02:00,
2013-02-12 12:07:00,38.7,12.7,27.16,WNW,292,5.8,5.8,34,0.00,CLR,,0.15,WeatherDisplay:10.37,2013-02-12 18:07:00,
2013-02-12 12:12:00,39.0,12.3,27.17,NW,315,6.9,6.9,33,0.00,CLR,,0.15,WeatherDisplay:10.37,2013-02-12 18:12:00,
2013-02-12 12:17:00,39.2,11.8,27.16,NW,315,8.1,8.1,32,0.00,CLR,,0.15,WeatherDisplay:10.37,2013-02-12 18:17:00,
2013-02-12 12:22:00,39.0,10.9,27.16,North,0,10.4,10.4,31,0.00,CLR,,0.15,WeatherDisplay:10.37,2013-02-12 18:22:00,
2013-02-12 12:27:00,39.0,11.6,27.16,WNW,292,11.5,11.5,32,0.00,CLR,,0.15,WeatherDisplay:10.37,2013-02-12 18:27:00,
2013-02-12 12:33:00,39.0,10.9,27.15,NW,315,11.5,11.5,31,0.00,CLR,,0.15,WeatherDisplay:10.37,2013-02-12 18:33:00,
2013-02-12 12:38:00,39.0,10.9,27.15,NW,315,11.5,11.5,31,0.00,CLR,,0.15,WeatherDisplay:10.37,2013-02-12 18:38:00,
2013-02-12 12:43:00,39.4,11.2,27.15,WNW,292,12.7,12.7,31,0.00,CLR,,0.15,WeatherDisplay:10.37,2013-02-12 18:43:00,
2013-02-12 12:48:00,39.7,10.8,27.14,NW,315,6.9,6.9,30,0.00,CLR,,0.15,WeatherDisplay:10.37,2013-02-12 18:48:00,
2013-02-12 12:53:00,39.9,10.9,27.14,NW,315,8.1,8.1,30,0.00,CLR,,0.15,WeatherDisplay:10.37,2013-02-12 18:53:00,
2013-02-12 12:58:00,40.1,11.1,27.14,NW,315,8.1,8.1,30,0.00,CLR,,0.15,WeatherDisplay:10.37,2013-02-12 18:58:00,
2013-02-12 13:03:00,40.1,11.1,27.14,NW,315,5.8,5.8,30,0.00,CLR,,0.15,WeatherDisplay:10.37,2013-02-12 19:03:00,
2013-02-12 13:08:00,40.1,11.1,27.13,NW,315,5.8,5.8,30,0.00,CLR,,0.15,WeatherDisplay:10.37,2013-02-12 19:08:00,
2013-02-12 13:13:00,40.6,11.6,27.13,NW,315,9.2,9.2,30,0.00,CLR,,0.15,WeatherDisplay:10.37,2013-02-12 19:13:00,
2013-02-12 13:18:00,40.6,11.6,27.13,NW,315,8.1,8.1,30,0.00,CLR,,0.15,WeatherDisplay:10.37,2013-02-12 19:18:00,
2013-02-12 13:23:00,40.8,11.7,27.12,North,0,10.4,10.4,30,0.00,CLR,,0.15,WeatherDisplay:10.37,2013-02-12 19:23:00,
2013-02-12 13:28:00,41.0,11.1,27.12,NW,315,5.8,5.8,29,0.00,CLR,,0.15,WeatherDisplay:10.37,2013-02-12 19:28:00,
2013-02-12 13:33:00,41.2,12.0,27.12,NW,315,10.4,10.4,30,0.00,CLR,,0.15,WeatherDisplay:10.37,2013-02-12 19:33:00,
2013-02-12 13:38:00,41.2,12.0,27.12,NW,315,9.2,9.2,30,0.00,CLR,,0.15,WeatherDisplay:10.37,2013-02-12 19:38:00,
2013-02-12 13:43:00,41.2,12.0,27.12,NNE,14,9.2,9.2,30,0.00,CLR,,0.15,WeatherDisplay:10.37,2013-02-12 19:43:00,
2013-02-12 13:48:00,41.4,12.2,27.11,NW,315,10.4,10.4,30,0.00,CLR,,0.15,WeatherDisplay:10.37,2013-02-12 19:48:00,
2013-02-12 13:53:00,41.5,12.4,27.11,NW,315,9.2,9.2,30,0.00,CLR,,0.15,WeatherDisplay:10.37,2013-02-12 19:53:00,
2013-02-12 13:58:00,41.7,12.5,27.11,NW,315,12.7,12.7,30,0.00,CLR,,0.15,WeatherDisplay:10.37,2013-02-12 19:58:00,
2013-02-12 14:03:00,41.7,13.3,27.11,NNW,338,6.9,6.9,31,0.00,CLR,,0.15,WeatherDisplay:10.37,2013-02-12 20:03:00,
2013-02-12 14:08:00,41.7,12.5,27.10,NNW,338,6.9,6.9,30,0.00,CLR,,0.15,WeatherDisplay:10.37,2013-02-12 20:08:00,
2013-02-12 14:13:00,41.9,13.4,27.11,NW,315,3.5,3.5,31,0.00,CLR,,0.15,WeatherDisplay:10.37,2013-02-12 20:13:00,
2013-02-12 14:18:00,42.3,13.7,27.11,NW,315,8.1,8.1,31,0.00,CLR,,0.15,WeatherDisplay:10.37,2013-02-12 20:18:00,
2013-02-12 14:23:00,42.4,13.1,27.11,WNW,292,5.8,5.8,30,0.00,CLR,,0.15,WeatherDisplay:10.37,2013-02-12 20:23:00,
2013-02-12 14:28:00,42.4,13.9,27.10,NW,315,10.4,10.4,31,0.00,CLR,,0.15,WeatherDisplay:10.37,2013-02-12 20:28:00,
2013-02-12 14:33:00,42.4,13.1,27.10,NW,315,10.7,10.7,30,0.00,CLR,,0.15,WeatherDisplay:10.37,2013-02-12 20:33:00,
2013-02-12 14:38:00,42.4,13.9,27.10,North,0,10.4,10.4,31,0.00,CLR,,0.15,WeatherDisplay:10.37,2013-02-12 20:38:00,
2013-02-12 14:43:00,42.6,15.5,27.10,NW,315,10.4,10.4,33,0.00,CLR,,0.15,WeatherDisplay:10.37,2013-02-12 20:43:00,
2013-02-12 14:48:00,42.8,13.5,27.10,NW,315,12.7,12.7,30,0.00,CLR,,0.15,WeatherDisplay:10.37,2013-02-12 20:48:00,
2013-02-12 14:53:00,42.6,14.8,27.10,WNW,292,12.7,12.7,32,0.00,CLR,,0.15,WeatherDisplay:10.37,2013-02-12 20:53:00,
2013-02-12 14:58:00,42.6,14.8,27.10,NW,315,8.1,8.1,32,0.00,CLR,,0.15,WeatherDisplay:10.37,2013-02-12 20:58:00,
2013-02-12 15:03:00,42.6,15.5,27.09,NE,45,12.7,12.7,33,0.00,CLR,,0.15,WeatherDisplay:10.37,2013-02-12 21:03:00,
2013-02-12 15:08:00,42.6,15.5,27.09,North,0,15.0,15.0,33,0.00,CLR,,0.15,WeatherDisplay:10.37,2013-02-12 21:08:00,
2013-02-12 15:13:00,42.4,14.6,27.09,NW,315,10.4,10.4,32,0.00,CLR,,0.15,WeatherDisplay:10.37,2013-02-12 21:13:00,
2013-02-12 15:18:00,42.3,15.9,27.09,West,270,6.9,6.9,34,0.00,CLR,,0.15,WeatherDisplay:10.37,2013-02-12 21:18:00,
2013-02-12 15:23:00,42.3,15.9,27.09,North,0,15.0,15.0,34,0.00,CLR,,0.15,WeatherDisplay:10.37,2013-02-12 21:23:00,
2013-02-12 15:28:00,41.9,15.5,27.09,NW,315,11.5,11.5,34,0.00,CLR,,0.15,WeatherDisplay:10.37,2013-02-12 21:28:00,
2013-02-12 15:33:00,41.9,16.2,27.09,North,0,13.8,13.8,35,0.00,CLR,,0.15,WeatherDisplay:10.37,2013-02-12 21:33:00,
2013-02-12 15:38:00,41.5,15.2,27.09,NW,315,11.5,11.5,34,0.00,CLR,,0.15,WeatherDisplay:10.37,2013-02-12 21:38:00,
2013-02-12 15:43:00,41.7,15.4,27.09,NW,315,8.1,8.1,34,0.00,CLR,,0.15,WeatherDisplay:10.37,2013-02-12 21:43:00,
2013-02-12 15:48:00,41.7,15.4,27.09,NW,315,9.2,9.2,34,0.00,CLR,,0.15,WeatherDisplay:10.37,2013-02-12 21:48:00,
2013-02-12 15:53:00,41.7,14.7,27.10,NW,315,8.1,8.1,33,0.00,CLR,,0.15,WeatherDisplay:10.37,2013-02-12 21:53:00,
2013-02-12 15:58:00,41.7,14.7,27.09,NW,315,8.1,8.1,33,0.00,CLR,,0.15,WeatherDisplay:10.37,2013-02-12 21:58:00,
2013-02-12 16:03:00,41.7,14.7,27.10,NW,315,6.9,6.9,33,0.00,CLR,,0.15,WeatherDisplay:10.37,2013-02-12 22:03:00,
2013-02-12 16:08:00,41.2,14.9,27.09,NW,315,6.9,6.9,34,0.00,CLR,,0.15,WeatherDisplay:10.37,2013-02-12 22:08:00,
2013-02-12 16:13:00,41.0,14.7,27.09,NW,315,8.1,8.1,34,0.00,CLR,,0.15,WeatherDisplay:10.37,2013-02-12 22:13:00,
2013-02-12 16:18:00,40.8,16.5,27.09,NW,315,5.8,5.8,37,0.00,CLR,,0.15,WeatherDisplay:10.37,2013-02-12 22:18:00,
2013-02-12 16:23:00,41.0,16.7,27.10,NW,315,8.1,8.1,37,0.00,CLR,,0.15,WeatherDisplay:10.37,2013-02-12 22:23:00,
2013-02-12 16:28:00,41.0,17.3,27.09,NW,315,6.9,6.9,38,0.00,CLR,,0.15,WeatherDisplay:10.37,2013-02-12 22:28:00,
2013-02-12 16:33:00,41.2,17.5,27.09,NW,315,10.4,10.4,38,0.00,CLR,,0.15,WeatherDisplay:10.37,2013-02-12 22:33:00,
2013-02-12 16:38:00,41.4,17.6,27.09,NW,315,5.8,5.8,38,0.00,CLR,,0.15,WeatherDisplay:10.37,2013-02-12 22:38:00,
2013-02-12 16:43:00,41.2,17.5,27.09,NW,315,9.2,9.2,38,0.00,CLR,,0.15,WeatherDisplay:10.37,2013-02-12 22:43:00,
2013-02-12 16:48:00,41.4,17.6,27.09,NW,315,6.9,6.9,38,0.00,CLR,,0.15,WeatherDisplay:10.37,2013-02-12 22:48:00,
2013-02-12 16:53:00,41.2,17.5,27.09,NW,315,8.1,8.1,38,0.00,CLR,,0.15,WeatherDisplay:10.37,2013-02-12 22:53:00,
2013-02-12 16:58:00,41.2,18.1,27.09,NW,315,9.2,9.2,39,0.00,CLR,,0.15,WeatherDisplay:10.37,2013-02-12 22:58:00,
2013-02-12 17:03:00,41.0,18.5,27.09,NW,315,8.1,8.1,40,0.00,CLR,,0.15,WeatherDisplay:10.37,2013-02-12 23:03:00,
2013-02-12 17:08:00,41.0,20.2,27.09,NW,315,5.8,5.8,43,0.00,CLR,,0.15,WeatherDisplay:10.37,2013-02-12 23:08:00,
2013-02-12 17:13:00,41.0,20.2,27.10,NNW,338,6.9,6.9,43,0.00,CLR,,0.15,WeatherDisplay:10.37,2013-02-12 23:13:00,
2013-02-12 17:18:00,40.6,20.4,27.10,NW,315,5.8,5.8,44,0.00,CLR,,0.15,WeatherDisplay:10.37,2013-02-12 23:18:00,
2013-02-12 17:23:00,40.5,20.2,27.09,NNW,338,4.6,4.6,44,0.00,CLR,,0.15,WeatherDisplay:10.37,2013-02-12 23:23:00,
2013-02-12 17:28:00,40.3,20.1,27.10,NW,315,4.6,4.6,44,0.00,CLR,,0.15,WeatherDisplay:10.37,2013-02-12 23:28:00,
2013-02-12 17:33:00,39.7,19.6,27.10,NW,315,4.6,4.6,44,0.00,CLR,,0.15,WeatherDisplay:10.37,2013-02-12 23:33:00,
2013-02-12 17:38:00,39.2,19.6,27.10,WNW,292,6.9,6.9,45,0.00,CLR,,0.15,WeatherDisplay:10.37,2013-02-12 23:38:00,
2013-02-12 17:44:00,39.0,20.5,27.10,NW,315,3.5,3.8,47,0.00,CLR,,0.15,WeatherDisplay:10.37,2013-02-12 23:44:00,
2013-02-12 17:49:00,38.8,20.3,27.10,NW,315,4.6,4.6,47,0.00,CLR,,0.15,WeatherDisplay:10.37,2013-02-12 23:49:00,
2013-02-12 17:54:00,38.7,20.6,27.10,NW,315,5.8,5.8,48,0.00,CLR,,0.15,WeatherDisplay:10.37,2013-02-12 23:54:00,
2013-02-12 17:59:00,38.3,20.8,27.11,NW,315,3.5,3.5,49,0.00,CLR,,0.15,WeatherDisplay:10.37,2013-02-12 23:59:00,
2013-02-12 18:04:00,38.3,20.8,27.11,NW,315,2.3,2.3,49,0.00,CLR,,0.15,WeatherDisplay:10.37,2013-02-13 00:04:00,
2013-02-12 18:09:00,37.8,20.3,27.11,NW,315,2.3,2.3,49,0.00,CLR,,0.15,WeatherDisplay:10.37,2013-02-13 00:09:00,
2013-02-12 18:14:00,37.2,18.3,27.11,NW,315,2.3,2.3,46,0.00,CLR,,0.15,WeatherDisplay:10.37,2013-02-13 00:14:00,
2013-02-12 18:19:00,37.0,18.1,27.11,NW,315,1.1,0.0,46,0.00,CLR,,0.15,WeatherDisplay:10.37,2013-02-13 00:19:00,
2013-02-12 18:24:00,36.7,17.8,27.10,NW,315,0.0,0.0,46,0.00,CLR,,0.15,WeatherDisplay:10.37,2013-02-13 00:24:00,
2013-02-12 18:29:00,36.3,17.5,27.11,NW,315,1.1,0.0,46,0.00,CLR,,0.15,WeatherDisplay:10.37,2013-02-13 00:29:00,
2013-02-12 18:34:00,35.8,17.5,27.11,NW,315,1.1,1.1,47,0.00,CLR,,0.15,WeatherDisplay:10.37,2013-02-13 00:34:00,
2013-02-12 18:39:00,35.6,17.8,27.11,NW,315,1.1,0.0,48,0.00,CLR,,0.15,WeatherDisplay:10.37,2013-02-13 00:39:00,
2013-02-12 18:44:00,35.2,18.0,27.11,NW,315,1.1,0.0,49,0.00,CLR,,0.15,WeatherDisplay:10.37,2013-02-13 00:44:00,
2013-02-12 18:49:00,34.7,17.9,27.11,NW,315,0.0,0.0,50,0.00,CLR,,0.15,WeatherDisplay:10.37,2013-02-13 00:49:00,
2013-02-12 18:54:00,34.3,17.6,27.11,NW,315,0.0,0.0,50,0.00,CLR,,0.15,WeatherDisplay:10.37,2013-02-13 00:54:00,
2013-02-12 18:59:00,34.0,17.3,27.11,NW,315,0.0,0.0,50,0.00,CLR,,0.15,WeatherDisplay:10.37,2013-02-13 00:59:00,
2013-02-12 19:04:00,33.6,17.8,27.11,NW,315,1.1,0.0,52,0.00,CLR,,0.15,WeatherDisplay:10.37,2013-02-13 01:04:00,
2013-02-12 19:09:00,33.4,18.1,27.11,NW,315,2.3,2.3,53,0.00,CLR,,0.15,WeatherDisplay:10.37,2013-02-13 01:09:00,
2013-02-12 19:14:00,33.1,17.8,27.11,NW,315,1.1,1.1,53,0.00,CLR,,0.15,WeatherDisplay:10.37,2013-02-13 01:14:00,
2013-02-12 19:19:00,32.7,17.9,27.11,NW,315,0.0,0.0,54,0.00,CLR,,0.15,WeatherDisplay:10.37,2013-02-13 01:19:00,
2013-02-12 19:24:00,32.2,17.4,27.11,North,0,1.1,0.0,54,0.00,CLR,,0.15,WeatherDisplay:10.37,2013-02-13 01:24:00,
2013-02-12 19:29:00,31.8,17.5,27.11,North,0,0.0,0.0,55,0.00,CLR,,0.15,WeatherDisplay:10.37,2013-02-13 01:29:00,
2013-02-12 19:34:00,31.5,17.6,27.11,NW,315,0.0,0.0,56,0.00,CLR,,0.15,WeatherDisplay:10.37,2013-02-13 01:34:00,
2013-02-12 19:39:00,31.1,17.2,27.11,North,0,1.1,1.1,56,0.00,CLR,,0.15,WeatherDisplay:10.37,2013-02-13 01:39:00,
2013-02-12 19:44:00,30.9,17.5,27.10,NW,315,0.0,0.0,57,0.00,CLR,,0.15,WeatherDisplay:10.37,2013-02-13 01:44:00,
2013-02-12 19:49:00,30.9,17.5,27.10,NW,315,0.0,0.0,57,0.00,CLR,,0.15,WeatherDisplay:10.37,2013-02-13 01:49:00,
2013-02-12 19:54:00,30.9,17.5,27.10,NW,315,0.0,0.0,57,0.00,CLR,,0.15,WeatherDisplay:10.37,2013-02-13 01:54:00,
2013-02-12 19:59:00,30.7,17.3,27.10,NW,315,1.1,0.0,57,0.00,CLR,,0.15,WeatherDisplay:10.37,2013-02-13 01:59:00,
2013-02-12 20:04:00,30.7,17.3,27.10,NW,315,1.1,1.1,57,0.00,CLR,,0.15,WeatherDisplay:10.37,2013-02-13 02:04:00,
2013-02-12 20:09:00,30.2,17.6,27.11,North,0,2.3,2.3,59,0.00,CLR,,0.15,WeatherDisplay:10.37,2013-02-13 02:09:00,
2013-02-12 20:14:00,29.5,17.7,27.11,NW,315,2.3,2.3,61,0.00,CLR,,0.15,WeatherDisplay:10.37,2013-02-13 02:14:00,
2013-02-12 20:19:00,29.3,17.9,27.11,NW,315,2.3,2.3,62,0.00,CLR,,0.15,WeatherDisplay:10.37,2013-02-13 02:19:00,
2013-02-12 20:24:00,29.3,18.3,27.11,NW,315,0.0,0.0,63,0.00,CLR,,0.15,WeatherDisplay:10.37,2013-02-13 02:24:00,
2013-02-12 20:29:00,29.3,18.3,27.11,NW,315,0.0,0.0,63,0.00,CLR,,0.15,WeatherDisplay:10.37,2013-02-13 02:29:00,
2013-02-12 20:34:00,29.5,18.4,27.11,North,0,0.0,0.0,63,0.00,CLR,,0.15,WeatherDisplay:10.37,2013-02-13 02:34:00,
2013-02-12 20:39:00,29.5,18.4,27.10,NNW,338,2.3,0.0,63,0.00,CLR,,0.15,WeatherDisplay:10.37,2013-02-13 02:39:00,
2013-02-12 20:44:00,29.3,18.3,27.10,NW,315,2.3,2.3,63,0.00,CLR,,0.15,WeatherDisplay:10.37,2013-02-13 02:44:00,
2013-02-12 20:49:00,29.3,18.6,27.11,NW,315,3.5,0.0,64,0.00,CLR,,0.15,WeatherDisplay:10.37,2013-02-13 02:49:00,
2013-02-12 20:54:00,29.1,18.8,27.10,NW,315,2.3,2.3,65,0.00,CLR,,0.15,WeatherDisplay:10.37,2013-02-13 02:54:00,
2013-02-12 20:59:00,28.9,18.6,27.10,NW,315,1.1,0.0,65,0.00,CLR,,0.15,WeatherDisplay:10.37,2013-02-13 02:59:00,
2013-02-12 21:04:00,28.9,18.6,27.10,NW,315,1.1,0.0,65,0.00,CLR,,0.15,WeatherDisplay:10.37,2013-02-13 03:04:00,
2013-02-12 21:09:00,29.1,18.8,27.10,NW,315,0.0,0.0,65,0.00,CLR,,0.15,WeatherDisplay:10.37,2013-02-13 03:09:00,
2013-02-12 21:14:00,29.1,18.8,27.10,NW,315,1.1,1.1,65,0.00,CLR,,0.15,WeatherDisplay:10.37,2013-02-13 03:14:00,
2013-02-12 21:19:00,29.3,19.0,27.10,NW,315,0.0,0.0,65,0.00,CLR,,0.15,WeatherDisplay:10.37,2013-02-13 03:19:00,
2013-02-12 21:24:00,29.1,18.8,27.10,NW,315,2.3,2.3,65,0.00,CLR,,0.15,WeatherDisplay:10.37,2013-02-13 03:24:00,
2013-02-12 21:29:00,28.8,18.5,27.11,NW,315,2.3,2.3,65,0.00,CLR,,0.15,WeatherDisplay:10.37,2013-02-13 03:29:00,
2013-02-12 21:34:00,28.6,18.7,27.10,NW,315,2.3,2.3,66,0.00,CLR,,0.15,WeatherDisplay:10.37,2013-02-13 03:34:00,
2013-02-12 21:39:00,28.4,18.5,27.10,NW,315,3.5,3.5,66,0.00,CLR,,0.15,WeatherDisplay:10.37,2013-02-13 03:39:00,
2013-02-12 21:44:00,28.4,18.8,27.10,NW,315,1.1,0.0,67,0.00,CLR,,0.15,WeatherDisplay:10.37,2013-02-13 03:44:00,
2013-02-12 21:49:00,28.4,18.8,27.10,NW,315,2.3,2.3,67,0.00,CLR,,0.15,WeatherDisplay:10.37,2013-02-13 03:49:00,
2013-02-12 21:54:00,28.2,17.2,27.10,NW,315,3.5,3.5,63,0.00,CLR,,0.15,WeatherDisplay:10.37,2013-02-13 03:54:00,
2013-02-12 21:59:00,28.2,17.2,27.10,NW,315,2.3,2.3,63,0.00,CLR,,0.15,WeatherDisplay:10.37,2013-02-13 03:59:00,
2013-02-12 22:04:00,28.2,17.2,27.10,NW,315,1.6,1.6,63,0.00,CLR,,0.15,WeatherDisplay:10.37,2013-02-13 04:04:00,
2013-02-12 22:09:00,28.2,17.6,27.10,WNW,292,1.1,1.6,64,0.00,CLR,,0.15,WeatherDisplay:10.37,2013-02-13 04:09:00,
2013-02-12 22:14:00,28.2,17.6,27.10,NNE,14,3.5,3.5,64,0.00,CLR,,0.15,WeatherDisplay:10.37,2013-02-13 04:14:00,
2013-02-12 22:19:00,28.2,17.6,27.10,NW,315,3.5,3.5,64,0.00,CLR,,0.15,WeatherDisplay:10.37,2013-02-13 04:19:00,
2013-02-12 22:24:00,28.0,17.4,27.10,NW,315,3.5,3.5,64,0.00,CLR,,0.15,WeatherDisplay:10.37,2013-02-13 04:24:00,
2013-02-12 22:29:00,28.0,17.8,27.10,NW,315,4.6,4.6,65,0.00,CLR,,0.15,WeatherDisplay:10.37,2013-02-13 04:29:00,
2013-02-12 22:34:00,28.0,18.1,27.11,WNW,292,4.6,4.6,66,0.00,CLR,,0.15,WeatherDisplay:10.37,2013-02-13 04:34:00,
2013-02-12 22:39:00,28.2,18.3,27.10,NW,315,3.8,3.8,66,0.00,CLR,,0.15,WeatherDisplay:10.37,2013-02-13 04:39:00,
2013-02-12 22:45:00,28.2,18.3,27.11,NW,315,3.5,3.5,66,0.00,CLR,,0.15,WeatherDisplay:10.37,2013-02-13 04:45:00,
2013-02-12 22:49:00,28.2,18.3,27.11,NW,315,1.1,0.0,66,0.00,CLR,,0.15,WeatherDisplay:10.37,2013-02-13 04:49:00,
2013-02-12 22:55:00,28.2,18.3,27.11,NW,315,1.1,1.1,66,0.00,CLR,,0.15,WeatherDisplay:10.37,2013-02-13 04:55:00,
2013-02-12 23:00:00,28.0,17.8,27.11,NW,315,2.3,2.3,65,0.00,CLR,,0.15,WeatherDisplay:10.37,2013-02-13 05:00:00,
2013-02-12 23:05:00,27.5,17.3,27.11,NW,315,2.3,2.3,65,0.00,CLR,,0.15,WeatherDisplay:10.37,2013-02-13 05:05:00,
2013-02-12 23:10:00,27.3,17.1,27.11,NW,315,1.1,0.0,65,0.00,CLR,,0.15,WeatherDisplay:10.37,2013-02-13 05:10:00,
2013-02-12 23:15:00,27.1,17.3,27.11,NW,315,3.5,3.5,66,0.00,CLR,,0.15,WeatherDisplay:10.37,2013-02-13 05:15:00,
2013-02-12 23:20:00,27.1,17.3,27.11,NW,315,1.1,0.0,66,0.00,CLR,,0.15,WeatherDisplay:10.37,2013-02-13 05:20:00,
2013-02-12 23:25:00,27.3,17.5,27.11,NW,315,3.5,0.0,66,0.00,CLR,,0.15,WeatherDisplay:10.37,2013-02-13 05:25:00,
2013-02-12 23:30:00,27.1,17.3,27.11,NW,315,1.1,0.0,66,0.00,CLR,,0.15,WeatherDisplay:10.37,2013-02-13 05:30:00,
2013-02-12 23:35:00,27.1,17.3,27.10,NW,315,3.5,3.5,66,0.00,CLR,,0.15,WeatherDisplay:10.37,2013-02-13 05:35:00,
2013-02-12 23:40:00,27.1,17.3,27.11,NW,315,3.8,3.8,66,0.00,CLR,,0.15,WeatherDisplay:10.37,2013-02-13 05:40:00,
2013-02-12 23:45:00,27.1,17.3,27.11,WNW,292,6.9,6.9,66,0.00,CLR,,0.15,WeatherDisplay:10.37,2013-02-13 05:45:00,
2013-02-12 23:50:00,27.0,17.1,27.11,NW,315,3.5,3.5,66,0.00,CLR,,0.15,WeatherDisplay:10.37,2013-02-13 05:50:00,
2013-02-12 23:55:00,26.8,16.9,27.11,NW,315,2.3,2.3,66,0.00,CLR,,0.15,WeatherDisplay:10.37,2013-02-13 05:55:00,